{"data":{"norad_id":53609,"epoch":"2026-09-20T21:51:12.271680Z","epoch_age_seconds":45840,"freshness":"FRESH","line1":"1 53609U 22104X   26263.91055870 -.00000111  00000+0  78529-5 0  9995","line2":"2 53609  53.1588  65.4586 0001175  83.4682 276.6454 15.34386830225390","mean_motion":15.3438683,"eccentricity":0.0001175,"inclination_deg":53.1588,"raan_deg":65.4586,"arg_perigee_deg":83.4682,"mean_anomaly_deg":276.6454,"bstar":7.8529e-6,"rev_number":22539,"period_min":93.848563598529,"perigee_km":461.93858117486,"apogee_km":463.54618783022,"semimajor_km":6840.8793845025,"source":"CELESTRAK","updated_at":"2026-09-21T09:00:32.939323Z"}}